Location: Home
(42.5358°N, 72.7383°W)
Time: 12:39:11
(UTC-05:00)

A-11 Canister half - Pass Details

Date: 04 December 2021
Orbit: 1524 x 1684 km, 47.3° (Epoch: 19 January)

Event Time Altitude Azimuth Distance (km) Brightness Sun altitude
Rises 08:17:19 0° 296° (WNW) 4,891 11.0 9.9°
Reaches altitude 10° 08:20:45 10° 289° (WNW) 3,881 10.6 10.4°
Maximum altitude 08:29:32 38° 226° (SW) 2,270 10.1 11.5°
Drops below altitude 10° 08:38:04 10° 162° (SSE) 3,753 12.5 12.6°
Sets 08:41:21 0° 155° (SSE) 4,714 13.1 13.0°
